TURKSAT 4B

Last updated on Thu Oct 30 2025 00:02:50 GMT+0000 (Coordinated Universal Time)

1 40984U 15060A 25302.48095777 .00000125 00000+0 00000+0 0 9992 2 40984 0.0339 73.5454 0001789 137.7874 49.8872 1.00270368 36781
UTC large
Height (km)
Speed (km/s)
/
Latitude / Longitude
Inclination (degrees)
Orbital Period (minutes)
Azimuth
Elevation
Range (km)
Doppler Factor

Next 0 passes for location: London (51.5072 / 0.1276)

Sorry there are no passes over London.